GW6288 Weather Reports


time (UTC)temp
F
wind
direction
speed
knots
gust
knots
rain 1hr
in
rain 24hr
in
rain mn
in
humidity
%
barometer
mb
20260906234327 95 247 0.0 0.0 0.00 0.00 0.00 20 1016.9
20260906233826 95 205 5.2 6.1 0.00 0.00 0.00 20 1017.0
20260906233325 95 188 1.7 1.7 0.00 0.00 0.00 20 1016.9
20260906232821 96 218 5.2 7.0 0.00 0.00 0.00 20 1017.1
20260906232320 95 228 4.3 6.1 0.00 0.00 0.00 20 1017.1
20260906231815 97 203 5.2 7.8 0.00 0.00 0.00 19 1016.9
20260906231310 97 200 0.9 0.9 0.00 0.00 0.00 19 1017.0
20260906230809 95 180 1.7 2.6 0.00 0.00 0.00 19 1017.1
20260906230305 95 156 0.0 0.9 0.00 0.00 0.00 19 1017.1
20260906225802 95 113 1.7 3.5 0.00 0.00 0.00 19 1017.2
20260906225258 95 181 0.9 1.7 0.00 0.00 0.00 19 1017.1
20260906224754 95 188 4.3 6.1 0.00 0.00 0.00 19 1017.0
20260906224250 96 167 2.6 3.5 0.00 0.00 0.00 18 1017.0
20260906223747 98 233 2.6 3.5 0.00 0.00 0.00 18 1017.0
20260906223242 96 216 2.6 3.5 0.00 0.00 0.00 18 1017.0
20260906222740 95 182 3.5 5.2 0.00 0.00 0.00 19 1017.3
20260906222239 95 214 4.3 7.8 0.00 0.00 0.00 19 1017.2
20260906221737 95 205 4.3 5.2 0.00 0.00 0.00 19 1017.3
20260906221231 97 178 0.0 0.0 0.00 0.00 0.00 18 1017.3
20260906220727 96 214 5.2 7.0 0.00 0.00 0.00 19 1017.5
20260906220222 96 214 2.6 2.6 0.00 0.00 0.00 18 1017.5
20260906215721 96 139 0.0 0.9 0.00 0.00 0.00 18 1017.6
20260906215221 97 170 2.6 2.6 0.00 0.00 0.00 18 1017.6
20260906214719 96 198 0.9 0.9 0.00 0.00 0.00 18 1017.8
20260906214215 95 210 3.5 5.2 0.00 0.00 0.00 18 1017.7
20260906213713 95 186 4.3 6.1 0.00 0.00 0.00 18 1017.8
20260906213208 96 185 7.0 7.8 0.00 0.00 0.00 18 1018.3
20260906212705 96 184 1.7 2.6 0.00 0.00 0.00 17 1018.3
20260906212201 97 230 3.5 5.2 0.00 0.00 0.00 17 1018.4
20260906211701 96 234 1.7 1.7 0.00 0.00 0.00 17 1018.3
20260906211156 99 241 2.6 3.5 0.00 0.00 0.00 16 1018.6
20260906210651 98 169 0.9 0.9 0.00 0.00 0.00 16 1018.6
20260906210151 98 202 1.7 6.1 0.00 0.00 0.00 16 1018.5
20260906205647 96 201 0.9 1.7 0.00 0.00 0.00 16 1018.7
20260906205143 96 338 2.6 3.5 0.00 0.00 0.00 16 1019.0
20260906204643 95 193 0.9 1.7 0.00 0.00 0.00 16 1018.9
20260906204137 96 217 3.5 3.5 0.00 0.00 0.00 16 1019.0
20260906203637 94 239 3.5 3.5 0.00 0.00 0.00 17 1018.9
20260906203132 96 207 2.6 2.6 0.00 0.00 0.00 17 1019.2
20260906202629 96 284 1.7 2.6 0.00 0.00 0.00 16 1019.4
20260906202128 96 237 1.7 1.7 0.00 0.00 0.00 16 1019.3
20260906201623 95 122 0.9 1.7 0.00 0.00 0.00 17 1019.4
20260906201122 95 217 2.6 2.6 0.00 0.00 0.00 17 1019.6
20260906200619 96 222 1.7 2.6 0.00 0.00 0.00 16 1019.6
20260906200114 96 302 3.5 6.1 0.00 0.00 0.00 16 1019.6
20260906195609 94 185 1.7 1.7 0.00 0.00 0.00 17 1019.6
20260906195106 95 299 1.7 2.6 0.00 0.00 0.00 17 1019.6
20260906194601 96 182 0.0 0.0 0.00 0.00 0.00 16 1019.8
20260906194057 94 141 1.7 1.7 0.00 0.00 0.00 18 1019.8
20260906193556 95 26 5.2 6.1 0.00 0.00 0.00 17 1019.8
20260906193052 95 250 4.3 6.1 0.00 0.00 0.00 17 1019.7
20260906192547 93 171 0.9 0.9 0.00 0.00 0.00 17 1019.9
20260906192046 93 154 0.9 0.9 0.00 0.00 0.00 18 1020.4
20260906191542 94 222 2.6 2.6 0.00 0.00 0.00 17 1020.1
20260906191041 93 217 2.6 2.6 0.00 0.00 0.00 18 1020.3
20260906190540 94 178 0.0 0.9 0.00 0.00 0.00 17 1020.5
20260906190035 94 229 2.6 2.6 0.00 0.00 0.00 17 1020.4
20260906185534 93 188 3.5 5.2 0.00 0.00 0.00 17 1020.5
20260906185033 94 174 2.6 2.6 0.00 0.00 0.00 17 1020.6
20260906184528 93 301 1.7 2.6 0.00 0.00 0.00 17 1020.7
20260906184024 93 224 3.5 5.2 0.00 0.00 0.00 16 1020.7
20260906183520 92 325 2.6 3.5 0.00 0.00 0.00 17 1020.8
20260906183015 93 24 2.6 2.6 0.00 0.00 0.00 17 1020.8
20260906182510 92 195 0.9 1.7 0.00 0.00 0.00 17 1021.0
20260906182007 91 196 0.9 1.7 0.00 0.00 0.00 21 1021.1
20260906181502 92 212 1.7 1.7 0.00 0.00 0.00 22 1021.3
20260906180957 92 183 1.7 2.6 0.00 0.00 0.00 23 1021.4
20260906180452 90 168 1.7 1.7 0.00 0.00 0.00 23 1021.5
20260906175950 91 170 0.0 0.0 0.00 0.00 0.00 23 1021.5
20260906175445 90 142 0.9 0.9 0.00 0.00 0.00 24 1021.7
20260906174944 89 209 1.7 1.7 0.00 0.00 0.00 25 1021.7
20260906174443 87 179 0.0 0.0 0.00 0.00 0.00 26 1021.8
20260906173938 86 132 0.0 0.9 0.00 0.00 0.00 28 1021.9
20260906173433 88 61 2.6 2.6 0.00 0.00 0.00 26 1021.9
20260906172933 88 174 0.0 0.9 0.00 0.00 0.00 27 1021.9
20260906172430 86 37 1.7 2.6 0.00 0.00 0.00 28 1022.0
20260906171924 86 12 3.5 6.1 0.00 0.00 0.00 30 1022.0
20260906171419 85 0 2.6 3.5 0.00 0.00 0.00 31 1022.0
20260906170915 84 298 3.5 5.2 0.00 0.00 0.00 31 1022.2
20260906170411 82 246 1.7 2.6 0.00 0.00 0.00 32 1022.1
20260906165907 82 41 1.7 1.7 0.00 0.00 0.00 33 1022.2
20260906165406 82 206 1.7 1.7 0.00 0.00 0.00 34 1022.5
20260906164901 82 339 3.5 5.2 0.00 0.00 0.00 34 1022.5
20260906164400 81 283 3.5 3.5 0.00 0.00 0.00 34 1022.5
20260906163856 81 300 2.6 2.6 0.00 0.00 0.00 35 1022.6
20260906163352 81 294 0.9 1.7 0.00 0.00 0.00 35 1022.5
20260906162850 81 197 1.7 2.6 0.00 0.00 0.00 35 1022.4
20260906162349 81 219 1.7 2.6 0.00 0.00 0.00 34 1022.4
20260906161844 80 18 2.6 2.6 0.00 0.00 0.00 34 1022.6
20260906161344 80 161 0.9 1.7 0.00 0.00 0.00 34 1022.5
20260906160843 79 19 1.7 1.7 0.00 0.00 0.00 35 1022.4
20260906160337 79 77 1.7 1.7 0.00 0.00 0.00 35 1022.5
20260906155835 79 69 3.5 3.5 0.00 0.00 0.00 35 1022.4
20260906155329 78 226 1.7 1.7 0.00 0.00 0.00 36 1022.5
20260906154825 78 39 3.5 6.1 0.00 0.00 0.00 35 1022.4
20260906154319 78 204 1.7 2.6 0.00 0.00 0.00 36 1022.6
20260906153819 78 321 3.5 3.5 0.00 0.00 0.00 36 1022.4
20260906153318 78 346 2.6 5.2 0.00 0.00 0.00 36 1022.5
20260906152813 77 283 3.5 3.5 0.00 0.00 0.00 36 1022.6
20260906152308 78 27 1.7 2.6 0.00 0.00 0.00 35 1022.7
20260906151808 78 234 2.6 2.6 0.00 0.00 0.00 34 1022.5
20260906151303 77 28 4.3 5.2 0.00 0.00 0.00 35 1022.5
20260906150759 78 355 5.2 6.1 0.00 0.00 0.00 34 1022.4
20260906150254 77 229 2.6 3.5 0.00 0.00 0.00 34 1022.5
20260906145753 77 41 3.5 3.5 0.00 0.00 0.00 35 1022.4
20260906145251 77 348 2.6 2.6 0.00 0.00 0.00 35 1022.5
20260906144747 76 48 3.5 3.5 0.00 0.00 0.00 35 1022.2
20260906144242 76 345 1.7 2.6 0.00 0.00 0.00 34 1022.5
20260906143741 75 318 2.6 2.6 0.00 0.00 0.00 35 1022.6
20260906143238 76 329 3.5 3.5 0.00 0.00 0.00 34 1022.7
20260906142738 75 115 2.6 2.6 0.00 0.00 0.00 35 1022.6
20260906142233 75 36 3.5 3.5 0.00 0.00 0.00 36 1022.1
20260906141732 74 26 4.3 6.1 0.00 0.00 0.00 37 1022.2
20260906141227 74 175 1.7 3.5 0.00 0.00 0.00 37 1022.4
20260906140727 73 236 1.7 1.7 0.00 0.00 0.00 37 1022.2
20260906140221 72 335 2.6 3.5 0.00 0.00 0.00 38 1022.0
20260906135718 72 113 0.9 1.7 0.00 0.00 0.00 38 1022.1
20260906135214 72 354 2.6 3.5 0.00 0.00 0.00 38 1022.0
20260906134709 73 46 5.2 6.1 0.00 0.00 0.00 37 1022.2
20260906134205 72 35 4.3 5.2 0.00 0.00 0.00 38 1022.1
20260906133700 72 98 0.9 0.9 0.00 0.00 0.00 38 1021.8
20260906133155 72 8 5.2 6.1 0.00 0.00 0.00 38 1021.8
20260906132651 72 26 4.3 5.2 0.00 0.00 0.00 38 1021.9
20260906132146 71 19 5.2 7.0 0.00 0.00 0.00 38 1021.8
20260906131641 71 27 3.5 3.5 0.00 0.00 0.00 38 1021.8
20260906131137 71 24 3.5 3.5 0.00 0.00 0.00 39 1021.7
20260906130632 71 17 3.5 5.2 0.00 0.00 0.00 39 1021.7
20260906130127 70 13 4.3 5.2 0.00 0.00 0.00 39 1021.8
20260906125625 70 47 2.6 2.6 0.00 0.00 0.00 39 1021.9
20260906125123 70 5 2.6 3.5 0.00 0.00 0.00 38 1021.8
20260906124619 70 31 4.3 5.2 0.00 0.00 0.00 38 1021.7
20260906124114 71 44 1.7 2.6 0.00 0.00 0.00 38 1021.8
20260906123614 71 145 0.9 1.7 0.00 0.00 0.00 38 1021.4
20260906123109 71 66 1.7 2.6 0.00 0.00 0.00 38 1021.5
20260906122608 71 27 1.7 2.6 0.00 0.00 0.00 37 1021.5
20260906122104 71 41 4.3 5.2 0.00 0.00 0.00 37 1021.3
20260906121600 72 37 3.5 5.2 0.00 0.00 0.00 36 1021.4
20260906121056 72 51 3.5 3.5 0.00 0.00 0.00 36 1021.4
20260906120551 72 93 1.7 2.6 0.00 0.00 0.00 37 1021.3
20260906120048 72 188 0.9 0.9 0.00 0.00 0.00 37 1021.5
20260906115549 73 31 3.5 3.5 0.00 0.00 0.00 36 1021.4
20260906115044 73 65 1.7 1.7 0.00 0.00 0.00 36 1021.5
20260906114543 73 38 2.6 2.6 0.00 0.00 0.00 36 1021.5
20260906114039 73 33 1.7 2.6 0.00 0.00 0.00 36 1021.3
20260906113538 73 127 0.0 0.0 0.00 0.00 0.00 36 1021.4
20260906113033 73 134 0.9 0.9 0.00 0.00 0.00 36 1021.4
20260906112528 73 163 0.0 0.9 0.00 0.00 0.00 36 1021.5
20260906112025 73 132 0.9 0.9 0.00 0.00 0.00 36 1021.4
20260906111524 74 156 0.9 0.9 0.00 0.00 0.00 35 1021.3
20260906111019 74 120 0.9 0.9 0.00 0.00 0.00 34 1021.3
20260906110514 74 98 1.7 1.7 0.00 0.00 0.00 34 1021.1
20260906110013 74 116 0.9 1.7 0.00 0.00 0.00 35 1021.3
20260906105509 74 153 0.9 0.9 0.00 0.00 0.00 35 1021.5
20260906105005 74 151 0.0 0.9 0.00 0.00 0.00 35 1021.3
20260906104503 74 141 1.7 1.7 0.00 0.00 0.00 34 1021.4
20260906104003 75 101 1.7 1.7 0.00 0.00 0.00 34 1021.1
20260906103501 75 156 0.9 0.9 0.00 0.00 0.00 34 1021.1
20260906102956 75 140 0.9 0.9 0.00 0.00 0.00 33 1021.3
20260906102451 75 99 1.7 1.7 0.00 0.00 0.00 33 1021.1
20260906101950 75 145 0.9 0.9 0.00 0.00 0.00 33 1021.1
20260906101446 75 57 1.7 2.6 0.00 0.00 0.00 33 1021.2
20260906100946 75 84 1.7 2.6 0.00 0.00 0.00 33 1021.4
20260906100441 75 146 1.7 1.7 0.00 0.00 0.00 33 1021.3
20260906095935 75 120 1.7 1.7 0.00 0.00 0.00 34 1021.1
20260906095431 75 148 1.7 2.6 0.00 0.00 0.00 34 1021.1
20260906094926 74 94 0.9 0.9 0.00 0.00 0.00 35 1021.0
20260906094420 74 110 0.9 0.9 0.00 0.00 0.00 36 1020.7
20260906093916 74 161 0.0 0.0 0.00 0.00 0.00 36 1021.1
20260906093413 74 186 0.0 0.0 0.00 0.00 0.00 37 1021.0
20260906092912 74 201 0.9 0.9 0.00 0.00 0.00 37 1021.0
20260906092412 74 175 0.0 0.0 0.00 0.00 0.00 37 1021.0
20260906091908 74 168 0.0 0.0 0.00 0.00 0.00 36 1020.8
20260906091403 74 172 0.0 0.0 0.00 0.00 0.00 37 1020.8
20260906090900 74 177 0.9 0.9 0.00 0.00 0.00 37 1020.7
20260906090359 74 159 0.0 0.0 0.00 0.00 0.00 38 1020.7
20260906085854 74 168 0.0 0.0 0.00 0.00 0.00 38 1020.6
20260906085353 74 165 0.0 0.0 0.00 0.00 0.00 37 1020.6
20260906084848 75 166 0.0 0.0 0.00 0.00 0.00 37 1020.8
20260906084348 74 122 0.9 0.9 0.00 0.00 0.00 37 1020.8
20260906083842 74 190 0.0 0.0 0.00 0.00 0.00 39 1020.7
20260906083338 74 171 0.0 0.0 0.00 0.00 0.00 37 1020.7
20260906082838 74 180 0.0 0.0 0.00 0.00 0.00 38 1020.8
20260906082333 75 172 0.0 0.0 0.00 0.00 0.00 38 1020.8
20260906081829 75 159 0.0 0.0 0.00 0.00 0.00 37 1020.8
20260906081325 74 145 0.0 0.9 0.00 0.00 0.00 37 1021.1
20260906080820 74 162 0.0 0.9 0.00 0.00 0.00 37 1020.8
20260906080317 75 145 0.9 1.7 0.00 0.00 0.00 37 1021.2
20260906075816 74 148 0.9 0.9 0.00 0.00 0.00 38 1021.0
20260906075315 74 141 0.9 0.9 0.00 0.00 0.00 39 1021.3
20260906074811 73 172 0.0 0.9 0.00 0.00 0.00 40 1021.2
20260906074310 73 172 0.0 0.0 0.00 0.00 0.00 41 1021.2
20260906073809 74 174 0.0 0.0 0.00 0.00 0.00 41 1021.2
20260906073305 74 173 0.0 0.0 0.00 0.00 0.00 40 1021.1
20260906072801 75 174 0.0 0.0 0.00 0.00 0.00 40 1021.4
20260906072256 74 152 0.0 0.9 0.00 0.00 0.00 39 1021.2
20260906071752 74 155 0.0 0.0 0.00 0.00 0.00 40 1021.0
20260906071252 74 160 0.0 0.0 0.00 0.00 0.00 39 1021.2
20260906070749 75 168 0.0 0.0 0.00 0.00 0.00 39 1021.1
20260906070244 75 166 0.0 0.0 0.00 0.00 0.00 38 1021.1
20260906065743 75 168 0.0 0.9 0.00 0.00 0.00 38 1021.1
20260906065239 75 155 0.0 0.0 0.00 0.00 0.00 38 1021.3
20260906064735 75 170 0.0 0.0 0.00 0.00 0.00 37 1021.3
20260906064230 76 172 0.0 0.0 0.00 0.00 0.00 36 1021.1
20260906063725 76 163 0.0 0.0 0.00 0.00 0.00 36 1021.1
20260906063221 76 178 0.9 1.7 0.00 0.00 0.00 36 1021.1
20260906062716 76 172 0.0 0.0 0.00 0.00 0.00 35 1021.2
20260906062215 76 163 0.0 0.0 0.00 0.00 0.00 35 1021.1
20260906061711 76 154 0.9 0.9 0.00 0.00 0.00 35 1021.1
20260906061207 76 172 0.0 0.0 0.00 0.00 0.00 34 1021.2
20260906060702 76 173 0.0 0.0 0.00 0.00 0.00 34 1021.1
20260906060159 77 172 0.0 0.0 0.00 0.00 0.00 34 1021.0
20260906055655 77 181 0.0 0.0 0.00 0.00 0.00 33 1021.0
20260906055150 79 181 0.0 0.0 0.00 0.00 0.00 32 1020.8
20260906054645 79 185 0.0 0.0 0.00 0.00 0.00 31 1020.8
20260906054140 79 207 0.0 0.0 0.00 0.00 0.00 31 1020.7
20260906053637 80 189 0.0 0.0 0.00 0.00 0.00 31 1020.5
20260906053137 81 173 0.0 0.0 0.00 0.00 0.00 30 1020.7
20260906052633 81 212 1.7 2.6 0.00 0.00 0.00 29 1020.8
20260906052129 82 196 3.5 5.2 0.00 0.00 0.00 29 1020.8
20260906051626 81 304 3.5 5.2 0.00 0.00 0.00 29 1020.7
20260906051125 82 308 2.6 3.5 0.00 0.00 0.00 29 1020.7
20260906050621 81 5 1.7 2.6 0.00 0.00 0.00 29 1020.5
20260906050116 81 254 0.9 1.7 0.00 0.00 0.00 29 1020.3
20260906045614 82 174 0.0 0.0 0.00 0.00 0.00 29 1020.6
20260906045110 81 33 1.7 2.6 0.00 0.00 0.00 29 1020.6
20260906044606 81 153 0.9 0.9 0.00 0.00 0.00 29 1020.5
20260906044100 82 74 1.7 1.7 0.00 0.00 0.00 29 1020.7
20260906043557 82 78 1.7 1.7 0.00 0.00 0.00 28 1020.7
20260906043052 82 22 2.6 2.6 0.00 0.00 0.00 28 1020.6
20260906042551 82 144 0.9 1.7 0.00 0.00 0.00 29 1020.5
20260906042046 83 29 1.7 2.6 0.00 0.00 0.00 28 1020.5
20260906041542 82 52 1.7 1.7 0.00 0.00 0.00 29 1020.4
20260906041037 82 161 1.7 1.7 0.00 0.00 0.00 29 1020.5
20260906040532 82 49 1.7 1.7 0.00 0.00 0.00 29 1020.5
20260906040028 81 122 2.6 3.5 0.00 0.00 0.00 30 1020.6
20260906035522 82 137 2.6 2.6 0.00 0.00 0.00 29 1020.6
20260906035019 82 99 0.9 0.9 0.00 0.00 0.00 30 1020.7
20260906034518 82 164 0.0 0.0 0.00 0.00 0.00 30 1020.6
20260906034013 82 144 0.9 0.9 0.00 0.00 0.00 30 1020.3
20260906033508 82 124 0.9 0.9 0.00 0.00 0.00 29 1020.4
20260906033004 82 181 0.0 0.9 0.00 0.00 0.00 29 1020.3
20260906032500 82 94 0.9 1.7 0.00 0.00 0.00 29 1020.3
20260906032000 82 163 0.0 0.0 0.00 0.00 0.00 30 1020.1
20260906031456 82 154 0.9 1.7 0.00 0.00 0.00 30 1020.1
20260906030951 82 167 0.0 0.0 0.00 0.00 0.00 32 1020.0
20260906030445 82 168 0.0 0.0 0.00 0.00 0.00 32 1019.9
20260906025940 82 166 0.0 0.0 0.00 0.00 0.00 31 1019.8
20260906025439 82 152 0.9 0.9 0.00 0.00 0.00 31 1019.7
20260906024938 83 165 0.0 0.0 0.00 0.00 0.00 32 1019.7
20260906024433 83 157 0.9 0.9 0.00 0.00 0.00 31 1019.6
20260906023932 83 207 0.0 0.9 0.00 0.00 0.00 31 1019.6
20260906023430 83 257 1.7 1.7 0.00 0.00 0.00 31 1019.4
20260906022930 83 147 0.0 0.9 0.00 0.00 0.00 31 1019.2
20260906022425 83 161 0.0 0.0 0.00 0.00 0.00 31 1019.2
20260906021920 83 185 0.0 0.0 0.00 0.00 0.00 31 1019.4
20260906021415 84 164 0.0 0.0 0.00 0.00 0.00 32 1019.0
20260906020914 84 157 0.0 0.0 0.00 0.00 0.00 31 1019.2
20260906020409 84 180 0.0 0.9 0.00 0.00 0.00 30 1019.2
20260906015904 85 164 0.0 0.0 0.00 0.00 0.00 30 1019.1
20260906015403 85 180 0.0 0.0 0.00 0.00 0.00 30 1019.1
20260906014903 86 182 0.0 0.0 0.00 0.00 0.00 29 1019.1
20260906014402 86 185 0.0 0.0 0.00 0.00 0.00 29 1018.9
20260906013859 86 218 0.9 0.9 0.00 0.00 0.00 29 1019.3
20260906013354 87 189 0.0 0.0 0.00 0.00 0.00 28 1019.0
20260906012849 87 237 0.0 0.9 0.00 0.00 0.00 28 1019.1
20260906012344 87 176 0.9 1.7 0.00 0.00 0.00 28 1019.0
20260906011843 87 150 1.7 1.7 0.00 0.00 0.00 27 1019.0
20260906011339 88 287 2.6 3.5 0.00 0.00 0.00 27 1019.1
20260906010835 88 190 0.9 0.9 0.00 0.00 0.00 27 1019.1
20260906010331 88 281 0.9 0.9 0.00 0.00 0.00 28 1019.0
20260906005826 89 355 1.7 1.7 0.00 0.00 0.00 27 1019.0
20260906005325 89 311 1.7 2.6 0.00 0.00 0.00 27 1019.0
20260906004824 89 140 0.9 0.9 0.00 0.00 0.00 27 1019.1
20260906004324 89 164 0.9 0.9 0.00 0.00 0.00 26 1019.0
20260906003819 90 207 0.9 1.7 0.00 0.00 0.00 26 1019.1
20260906003315 90 192 0.9 1.7 0.00 0.00 0.00 26 1019.1
20260906002810 90 242 2.6 3.5 0.00 0.00 0.00 26 1019.0
20260906002309 91 315 0.9 0.9 0.00 0.00 0.00 26 1019.1
20260906001805 91 352 2.6 2.6 0.00 0.00 0.00 26 1019.0
20260906001300 93 200 0.9 1.7 0.00 0.00 0.00 25 1018.6
20260906000756 93 225 2.6 2.6 0.00 0.00 0.00 24 1019.0
20260906000256 93 207 0.9 0.9 0.00 0.00 0.00 24 1019.1
20260905235750 92 311 1.7 1.7 0.00 0.00 0.00 25 1018.7
20260905235250 92 226 0.0 0.9 0.00 0.00 0.00 25 1019.0
20260905234746 93 208 1.7 1.7 0.00 0.00 0.00 24 1018.9